Year,Month,Day,Hour,Minute,Value (Times are PST for windspeed in km/hr)
2010,04,04,00,00,0.30
2010,04,04,00,01,1.10
2010,04,04,00,02,0.50
2010,04,04,00,03,0.30
2010,04,04,00,04,0.10
2010,04,04,00,05,0.10
2010,04,04,00,06,0.70
2010,04,04,00,07,0.00
2010,04,04,00,08,0.00
2010,04,04,00,09,0.10
2010,04,04,00,10,0.10
2010,04,04,00,11,0.00
2010,04,04,00,12,0.00
2010,04,04,00,13,0.00
2010,04,04,00,14,0.00
2010,04,04,00,15,1.50
2010,04,04,00,16,0.30
2010,04,04,00,17,0.20
2010,04,04,00,18,0.20
2010,04,04,00,19,0.70
2010,04,04,00,20,0.00
2010,04,04,00,21,0.00
2010,04,04,00,22,0.00
2010,04,04,00,23,0.00
2010,04,04,00,24,0.00
2010,04,04,00,25,0.10
2010,04,04,00,26,0.00
2010,04,04,00,27,0.00
2010,04,04,00,28,0.00
2010,04,04,00,29,0.00
2010,04,04,00,30,0.10
2010,04,04,00,31,0.20
2010,04,04,00,32,1.40
2010,04,04,00,33,0.50
2010,04,04,00,34,0.20
2010,04,04,00,35,1.40
2010,04,04,00,36,0.00
2010,04,04,00,37,0.00
2010,04,04,00,38,0.00
2010,04,04,00,39,0.90
2010,04,04,00,40,0.80
2010,04,04,00,41,0.90
2010,04,04,00,42,0.30
2010,04,04,00,43,0.60
2010,04,04,00,44,2.00
2010,04,04,00,45,1.00
2010,04,04,00,46,3.10
2010,04,04,00,47,0.40
2010,04,04,00,48,0.20
2010,04,04,00,49,0.00
2010,04,04,00,50,0.10
2010,04,04,00,51,0.20
2010,04,04,00,52,1.20
2010,04,04,00,53,4.70
2010,04,04,00,54,2.70
2010,04,04,00,55,2.00
2010,04,04,00,56,2.30
2010,04,04,00,57,1.90
2010,04,04,00,58,2.50
2010,04,04,00,59,2.20
2010,04,04,01,00,1.40
2010,04,04,01,01,0.80
2010,04,04,01,02,0.70
2010,04,04,01,03,0.30
2010,04,04,01,04,1.70
2010,04,04,01,05,0.00
2010,04,04,01,06,0.10
2010,04,04,01,07,0.00
2010,04,04,01,08,0.00
2010,04,04,01,09,0.00
2010,04,04,01,10,0.20
2010,04,04,01,11,0.10
2010,04,04,01,12,0.00
2010,04,04,01,13,0.40
2010,04,04,01,14,0.00
2010,04,04,01,15,0.00
2010,04,04,01,16,0.20
2010,04,04,01,17,0.50
2010,04,04,01,18,0.20
2010,04,04,01,19,0.00
2010,04,04,01,20,0.00
2010,04,04,01,21,0.00
2010,04,04,01,22,0.00
2010,04,04,01,23,0.00
2010,04,04,01,24,0.20
2010,04,04,01,25,0.00
2010,04,04,01,26,0.10
2010,04,04,01,27,0.00
2010,04,04,01,28,0.10
2010,04,04,01,29,1.20
2010,04,04,01,30,3.10
2010,04,04,01,31,0.50
2010,04,04,01,32,0.10
2010,04,04,01,33,1.70
2010,04,04,01,34,0.20
2010,04,04,01,35,0.70
2010,04,04,01,36,0.00
2010,04,04,01,37,0.70
2010,04,04,01,38,0.80
2010,04,04,01,39,0.90
2010,04,04,01,40,0.90
2010,04,04,01,41,1.60
2010,04,04,01,42,0.20
2010,04,04,01,43,0.30
2010,04,04,01,44,0.20
2010,04,04,01,45,0.20
2010,04,04,01,46,1.60
2010,04,04,01,47,0.70
2010,04,04,01,48,0.10
2010,04,04,01,49,0.40
2010,04,04,01,50,0.60
2010,04,04,01,51,0.70
2010,04,04,01,52,0.90
2010,04,04,01,53,2.00
2010,04,04,01,54,2.20
2010,04,04,01,55,3.00
2010,04,04,01,56,2.40
2010,04,04,01,57,0.30
2010,04,04,01,58,0.90
2010,04,04,01,59,0.30
2010,04,04,02,00,1.30
2010,04,04,02,01,2.50
2010,04,04,02,02,1.00
2010,04,04,02,03,0.10
2010,04,04,02,04,0.00
2010,04,04,02,05,0.00
2010,04,04,02,06,0.30
2010,04,04,02,07,0.20
2010,04,04,02,08,0.50
2010,04,04,02,09,0.20
2010,04,04,02,10,1.90
2010,04,04,02,11,2.00
2010,04,04,02,12,0.80
2010,04,04,02,13,1.40
2010,04,04,02,14,1.10
2010,04,04,02,15,1.40
2010,04,04,02,16,1.00
2010,04,04,02,17,2.50
2010,04,04,02,18,1.40
2010,04,04,02,19,1.40
2010,04,04,02,20,2.50
2010,04,04,02,21,1.60
2010,04,04,02,22,1.50
2010,04,04,02,23,2.20
2010,04,04,02,24,0.80
2010,04,04,02,25,0.40
2010,04,04,02,26,0.60
2010,04,04,02,27,0.80
2010,04,04,02,28,0.30
2010,04,04,02,29,0.30
2010,04,04,02,30,0.20
2010,04,04,02,31,0.00
2010,04,04,02,32,1.50
2010,04,04,02,33,0.10
2010,04,04,02,34,0.70
2010,04,04,02,35,0.80
2010,04,04,02,36,2.20
2010,04,04,02,37,1.50
2010,04,04,02,38,0.10
2010,04,04,02,39,1.40
2010,04,04,02,40,2.30
2010,04,04,02,41,3.00
2010,04,04,02,42,1.60
2010,04,04,02,43,1.90
2010,04,04,02,44,0.40
2010,04,04,02,45,0.30
2010,04,04,02,46,0.20
2010,04,04,02,47,0.00
2010,04,04,02,48,0.00
2010,04,04,02,49,0.70
2010,04,04,02,50,1.40
2010,04,04,02,51,0.30
2010,04,04,02,52,0.10
2010,04,04,02,53,3.80
2010,04,04,02,54,1.10
2010,04,04,02,55,0.30
2010,04,04,02,56,0.00
2010,04,04,02,57,0.30
2010,04,04,02,58,0.00
2010,04,04,02,59,0.40
2010,04,04,03,00,0.20
2010,04,04,03,01,1.30
2010,04,04,03,02,0.60
2010,04,04,03,03,0.60
2010,04,04,03,04,1.10
2010,04,04,03,05,1.10
2010,04,04,03,06,0.00
2010,04,04,03,07,0.00
2010,04,04,03,08,0.00
2010,04,04,03,09,0.00
2010,04,04,03,10,0.00
2010,04,04,03,11,0.00
2010,04,04,03,12,0.20
2010,04,04,03,13,0.10
2010,04,04,03,14,0.10
2010,04,04,03,15,0.70
2010,04,04,03,16,0.10
2010,04,04,03,17,0.00
2010,04,04,03,18,0.50
2010,04,04,03,19,0.10
2010,04,04,03,20,0.20
2010,04,04,03,21,0.60
2010,04,04,03,22,0.00
2010,04,04,03,23,0.30
2010,04,04,03,24,0.00
2010,04,04,03,25,0.00
2010,04,04,03,26,0.00
2010,04,04,03,27,0.00
2010,04,04,03,28,0.00
2010,04,04,03,29,1.40
2010,04,04,03,30,3.60
2010,04,04,03,31,1.90
2010,04,04,03,32,0.60
2010,04,04,03,33,0.40
2010,04,04,03,34,0.10
2010,04,04,03,35,0.00
2010,04,04,03,36,0.00
2010,04,04,03,37,0.00
2010,04,04,03,38,0.00
2010,04,04,03,39,1.40
2010,04,04,03,40,0.20
2010,04,04,03,41,2.20
2010,04,04,03,42,0.10
2010,04,04,03,43,0.20
2010,04,04,03,44,0.10
2010,04,04,03,45,0.00
2010,04,04,03,46,0.30
2010,04,04,03,47,0.30
2010,04,04,03,48,1.50
2010,04,04,03,49,2.40
2010,04,04,03,50,2.60
2010,04,04,03,51,0.90
2010,04,04,03,52,1.40
2010,04,04,03,53,1.40
2010,04,04,03,54,0.90
2010,04,04,03,55,3.60
2010,04,04,03,56,1.20
2010,04,04,03,57,0.30
2010,04,04,03,58,0.20
2010,04,04,03,59,1.30
2010,04,04,04,00,2.50
2010,04,04,04,01,1.40
2010,04,04,04,02,1.20
2010,04,04,04,03,0.10
2010,04,04,04,04,0.10
2010,04,04,04,05,0.00
2010,04,04,04,06,0.00
2010,04,04,04,07,0.70
2010,04,04,04,08,2.70
2010,04,04,04,09,1.10
2010,04,04,04,10,2.40
2010,04,04,04,11,1.20
2010,04,04,04,12,0.70
2010,04,04,04,13,2.30
2010,04,04,04,14,0.40
2010,04,04,04,15,1.40
2010,04,04,04,16,2.20
2010,04,04,04,17,4.10
2010,04,04,04,18,2.20
2010,04,04,04,19,1.80
2010,04,04,04,20,2.70
2010,04,04,04,21,8.30
2010,04,04,04,22,7.20
2010,04,04,04,23,6.00
2010,04,04,04,24,4.70
2010,04,04,04,25,5.20
2010,04,04,04,26,4.00
2010,04,04,04,27,1.80
2010,04,04,04,28,3.90
2010,04,04,04,29,3.40
2010,04,04,04,30,6.00
2010,04,04,04,31,2.00
2010,04,04,04,32,0.10
2010,04,04,04,33,0.10
2010,04,04,04,34,1.00
2010,04,04,04,35,0.80
2010,04,04,04,36,1.50
2010,04,04,04,37,1.80
2010,04,04,04,38,4.50
2010,04,04,04,39,7.30
2010,04,04,04,40,9.10
2010,04,04,04,41,6.60
2010,04,04,04,42,3.10
2010,04,04,04,43,3.10
2010,04,04,04,44,2.00
2010,04,04,04,45,3.30
2010,04,04,04,46,5.00
2010,04,04,04,47,3.10
2010,04,04,04,48,0.20
2010,04,04,04,49,2.10
2010,04,04,04,50,3.40
2010,04,04,04,51,3.30
2010,04,04,04,52,4.60
2010,04,04,04,53,5.40
2010,04,04,04,54,5.20
2010,04,04,04,55,3.70
2010,04,04,04,56,6.60
2010,04,04,04,57,8.00
2010,04,04,04,58,2.40
2010,04,04,04,59,2.00
2010,04,04,05,00,3.00
2010,04,04,05,01,0.60
2010,04,04,05,02,0.10
2010,04,04,05,03,0.00
2010,04,04,05,04,0.80
2010,04,04,05,05,3.90
2010,04,04,05,06,1.70
2010,04,04,05,07,4.60
2010,04,04,05,08,2.70
2010,04,04,05,09,2.50
2010,04,04,05,10,1.40
2010,04,04,05,11,4.20
2010,04,04,05,12,3.80
2010,04,04,05,13,0.60
2010,04,04,05,14,1.90
2010,04,04,05,15,1.30
2010,04,04,05,16,4.40
2010,04,04,05,17,6.80
2010,04,04,05,18,12.20
2010,04,04,05,19,13.20
2010,04,04,05,20,6.90
2010,04,04,05,21,12.90
2010,04,04,05,22,7.30
2010,04,04,05,23,5.30
2010,04,04,05,24,4.00
2010,04,04,05,25,7.00
2010,04,04,05,26,8.00
2010,04,04,05,27,9.10
2010,04,04,05,28,8.00
2010,04,04,05,29,7.10
2010,04,04,05,30,8.40
2010,04,04,05,31,4.30
2010,04,04,05,32,8.10
2010,04,04,05,33,8.90
2010,04,04,05,34,12.30
2010,04,04,05,35,13.40
2010,04,04,05,36,13.90
2010,04,04,05,37,10.90
2010,04,04,05,38,16.10
2010,04,04,05,39,18.00
2010,04,04,05,40,9.90
2010,04,04,05,41,9.80
2010,04,04,05,42,9.70
2010,04,04,05,43,9.10
2010,04,04,05,44,16.90
2010,04,04,05,45,16.30
2010,04,04,05,46,11.10
2010,04,04,05,47,13.90
2010,04,04,05,48,16.40
2010,04,04,05,49,17.20
2010,04,04,05,50,8.30
2010,04,04,05,51,10.80
2010,04,04,05,52,14.60
2010,04,04,05,53,13.00
2010,04,04,05,54,4.60
2010,04,04,05,55,9.80
2010,04,04,05,56,9.50
2010,04,04,05,57,11.10
2010,04,04,05,58,8.90
2010,04,04,05,59,6.60
2010,04,04,06,00,8.80
2010,04,04,06,01,9.50
2010,04,04,06,02,14.20
2010,04,04,06,03,9.30
2010,04,04,06,04,12.00
2010,04,04,06,05,16.70
2010,04,04,06,06,16.00
2010,04,04,06,07,11.90
2010,04,04,06,08,13.20
2010,04,04,06,09,6.80
2010,04,04,06,10,8.30
2010,04,04,06,11,9.40
2010,04,04,06,12,6.00
2010,04,04,06,13,8.80
2010,04,04,06,14,14.00
2010,04,04,06,15,3.70
2010,04,04,06,16,7.90
2010,04,04,06,17,6.20
2010,04,04,06,18,14.50
2010,04,04,06,19,10.70
2010,04,04,06,20,9.00
2010,04,04,06,21,15.20
2010,04,04,06,22,12.70
2010,04,04,06,23,11.20
2010,04,04,06,24,11.40
2010,04,04,06,25,11.60
2010,04,04,06,26,9.60
2010,04,04,06,27,9.10
2010,04,04,06,28,7.00
2010,04,04,06,29,4.80
2010,04,04,06,30,5.00
2010,04,04,06,31,2.90
2010,04,04,06,32,3.10
2010,04,04,06,33,7.50
2010,04,04,06,34,4.50
2010,04,04,06,35,5.80
2010,04,04,06,36,7.10
2010,04,04,06,37,5.50
2010,04,04,06,38,5.80
2010,04,04,06,39,5.80
2010,04,04,06,40,11.80
2010,04,04,06,41,14.20
2010,04,04,06,42,13.50
2010,04,04,06,43,10.80
2010,04,04,06,44,9.00
2010,04,04,06,45,7.90
2010,04,04,06,46,7.90
2010,04,04,06,47,10.50
2010,04,04,06,48,11.40
2010,04,04,06,49,8.80
2010,04,04,06,50,14.20
2010,04,04,06,51,11.30
2010,04,04,06,52,17.50
2010,04,04,06,53,12.50
2010,04,04,06,54,11.80
2010,04,04,06,55,9.70
2010,04,04,06,56,22.90
2010,04,04,06,57,15.00
2010,04,04,06,58,22.70
2010,04,04,06,59,14.00
2010,04,04,07,00,19.30
2010,04,04,07,01,22.70
2010,04,04,07,02,15.00
2010,04,04,07,03,15.90
2010,04,04,07,04,17.40
2010,04,04,07,05,15.30
2010,04,04,07,06,12.90
2010,04,04,07,07,13.40
2010,04,04,07,08,14.90
2010,04,04,07,09,16.30
2010,04,04,07,10,22.50
2010,04,04,07,11,21.90
2010,04,04,07,12,17.10
2010,04,04,07,13,20.10
2010,04,04,07,14,22.10
2010,04,04,07,15,24.90
2010,04,04,07,16,17.90
2010,04,04,07,17,26.60
2010,04,04,07,18,26.00
2010,04,04,07,19,25.40
2010,04,04,07,20,27.20
2010,04,04,07,21,26.20
2010,04,04,07,22,23.90
2010,04,04,07,23,21.20
2010,04,04,07,24,19.70
2010,04,04,07,25,17.00
2010,04,04,07,26,19.30
2010,04,04,07,27,22.00
2010,04,04,07,28,15.20
2010,04,04,07,29,19.30
2010,04,04,07,30,19.20
2010,04,04,07,31,17.90
2010,04,04,07,32,17.10
2010,04,04,07,33,18.60
2010,04,04,07,34,17.10
2010,04,04,07,35,10.00
2010,04,04,07,36,7.50
2010,04,04,07,37,8.80
2010,04,04,07,38,16.30
2010,04,04,07,39,16.60
2010,04,04,07,40,14.80
2010,04,04,07,41,11.60
2010,04,04,07,42,22.00
2010,04,04,07,43,16.90
2010,04,04,07,44,18.50
2010,04,04,07,45,11.40
2010,04,04,07,46,8.10
2010,04,04,07,47,13.00
2010,04,04,07,48,13.60
2010,04,04,07,49,14.60
2010,04,04,07,50,12.50
2010,04,04,07,51,13.40
2010,04,04,07,52,9.50
2010,04,04,07,53,9.70
2010,04,04,07,54,11.30
2010,04,04,07,55,8.60
2010,04,04,07,56,6.80
2010,04,04,07,57,11.70
2010,04,04,07,58,14.70
2010,04,04,07,59,10.10
2010,04,04,08,00,14.60
2010,04,04,08,01,17.20
2010,04,04,08,02,8.80
2010,04,04,08,03,12.80
2010,04,04,08,04,10.40
2010,04,04,08,05,7.00
2010,04,04,08,06,8.60
2010,04,04,08,07,9.50
2010,04,04,08,08,10.50
2010,04,04,08,09,12.80
2010,04,04,08,10,23.30
2010,04,04,08,11,20.80
2010,04,04,08,12,15.20
2010,04,04,08,13,16.90
2010,04,04,08,14,15.90
2010,04,04,08,15,14.50
2010,04,04,08,16,15.90
2010,04,04,08,17,18.10
2010,04,04,08,18,25.80
2010,04,04,08,19,23.80
2010,04,04,08,20,15.30
2010,04,04,08,21,11.10
2010,04,04,08,22,18.50
2010,04,04,08,23,26.50
2010,04,04,08,24,23.00
2010,04,04,08,25,17.30
2010,04,04,08,26,17.10
2010,04,04,08,27,19.20
2010,04,04,08,28,19.40
2010,04,04,08,29,26.20
2010,04,04,08,30,27.80
2010,04,04,08,31,24.90
2010,04,04,08,32,19.00
2010,04,04,08,33,22.60
2010,04,04,08,34,13.60
2010,04,04,08,35,15.10
2010,04,04,08,36,15.20
2010,04,04,08,37,24.40
2010,04,04,08,38,30.50
2010,04,04,08,39,21.60
2010,04,04,08,40,18.20
2010,04,04,08,41,18.70
2010,04,04,08,42,21.60
2010,04,04,08,43,17.00
2010,04,04,08,44,20.50
2010,04,04,08,45,27.30
2010,04,04,08,46,24.70
2010,04,04,08,47,23.00
2010,04,04,08,48,17.70
2010,04,04,08,49,18.60
2010,04,04,08,50,23.80
2010,04,04,08,51,19.80
2010,04,04,08,52,20.80
2010,04,04,08,53,29.80
2010,04,04,08,54,25.50
2010,04,04,08,55,24.30
2010,04,04,08,56,25.30
2010,04,04,08,57,20.00
2010,04,04,08,58,18.80
2010,04,04,08,59,25.00
2010,04,04,09,00,25.70
2010,04,04,09,01,19.60
2010,04,04,09,02,29.70
2010,04,04,09,03,21.20
2010,04,04,09,04,26.40
2010,04,04,09,05,29.90
2010,04,04,09,06,27.00
2010,04,04,09,07,25.80
2010,04,04,09,08,24.90
2010,04,04,09,09,23.00
2010,04,04,09,10,18.30
2010,04,04,09,11,22.00
2010,04,04,09,12,20.00
2010,04,04,09,13,16.30
2010,04,04,09,14,23.30
2010,04,04,09,15,21.80
2010,04,04,09,16,16.80
2010,04,04,09,17,14.70
2010,04,04,09,18,23.70
2010,04,04,09,19,21.80
2010,04,04,09,20,15.80
2010,04,04,09,21,25.80
2010,04,04,09,22,21.80
2010,04,04,09,23,26.50
2010,04,04,09,24,23.30
2010,04,04,09,25,26.60
2010,04,04,09,26,28.30
2010,04,04,09,27,20.30
2010,04,04,09,28,21.50
2010,04,04,09,29,21.90
2010,04,04,09,30,17.50
2010,04,04,09,31,22.40
2010,04,04,09,32,21.10
2010,04,04,09,33,23.10
2010,04,04,09,34,25.50
2010,04,04,09,35,19.80
2010,04,04,09,36,27.50
2010,04,04,09,37,31.40
2010,04,04,09,38,34.10
2010,04,04,09,39,21.60
2010,04,04,09,40,30.00
2010,04,04,09,41,25.00
2010,04,04,09,42,19.10
2010,04,04,09,43,17.40
2010,04,04,09,44,15.90
2010,04,04,09,45,19.10
2010,04,04,09,46,20.00
2010,04,04,09,47,15.50
2010,04,04,09,48,26.80
2010,04,04,09,49,34.40
2010,04,04,09,50,23.30
2010,04,04,09,51,18.30
2010,04,04,09,52,24.30
2010,04,04,09,53,23.90
2010,04,04,09,54,24.90
2010,04,04,09,55,25.40
2010,04,04,09,56,22.00
2010,04,04,09,57,19.30
2010,04,04,09,58,29.90
2010,04,04,09,59,20.80
2010,04,04,10,00,25.90
2010,04,04,10,01,17.40
2010,04,04,10,02,16.30
2010,04,04,10,03,16.50
2010,04,04,10,04,15.40
2010,04,04,10,05,17.60
2010,04,04,10,06,24.70
2010,04,04,10,07,18.10
2010,04,04,10,08,19.10
2010,04,04,10,09,17.30
2010,04,04,10,10,15.90
2010,04,04,10,11,17.90
2010,04,04,10,12,13.70
2010,04,04,10,13,14.20
2010,04,04,10,14,16.50
2010,04,04,10,15,17.30
2010,04,04,10,16,23.60
2010,04,04,10,17,25.40
2010,04,04,10,18,24.20
2010,04,04,10,19,25.30
2010,04,04,10,20,27.00
2010,04,04,10,21,25.00
2010,04,04,10,22,13.60
2010,04,04,10,23,15.80
2010,04,04,10,24,31.10
2010,04,04,10,25,22.90
2010,04,04,10,26,22.40
2010,04,04,10,27,18.90
2010,04,04,10,28,19.90
2010,04,04,10,29,19.60
2010,04,04,10,30,15.50
2010,04,04,10,31,16.90
2010,04,04,10,32,9.80
2010,04,04,10,33,15.40
2010,04,04,10,34,11.80
2010,04,04,10,35,17.20
2010,04,04,10,36,33.90
2010,04,04,10,37,25.90
2010,04,04,10,38,27.20
2010,04,04,10,39,18.40
2010,04,04,10,40,11.90
2010,04,04,10,41,15.90
2010,04,04,10,42,10.10
2010,04,04,10,43,18.30
2010,04,04,10,44,15.20
2010,04,04,10,45,18.00
2010,04,04,10,46,14.60
2010,04,04,10,47,19.50
2010,04,04,10,48,24.70
2010,04,04,10,49,20.80
2010,04,04,10,50,23.40
2010,04,04,10,51,20.50
2010,04,04,10,52,28.80
2010,04,04,10,53,27.80
2010,04,04,10,54,22.20
2010,04,04,10,55,28.20
2010,04,04,10,56,29.00
2010,04,04,10,57,31.70
2010,04,04,10,58,24.20
2010,04,04,10,59,24.40
2010,04,04,11,00,18.90
2010,04,04,11,01,34.40
2010,04,04,11,02,28.20
2010,04,04,11,03,31.80
2010,04,04,11,04,38.60
2010,04,04,11,05,21.40
2010,04,04,11,06,28.50
2010,04,04,11,07,27.90
2010,04,04,11,08,22.80
2010,04,04,11,09,21.60
2010,04,04,11,10,16.30
2010,04,04,11,11,21.90
2010,04,04,11,12,23.60
2010,04,04,11,13,26.30
2010,04,04,11,14,21.70
2010,04,04,11,15,27.60
2010,04,04,11,16,30.90
2010,04,04,11,17,24.50
2010,04,04,11,18,23.40
2010,04,04,11,19,17.40
2010,04,04,11,20,20.50
2010,04,04,11,21,27.60
2010,04,04,11,22,15.20
2010,04,04,11,23,27.30
2010,04,04,11,24,30.00
2010,04,04,11,25,33.20
2010,04,04,11,26,29.10
2010,04,04,11,27,29.70
2010,04,04,11,28,34.30
2010,04,04,11,29,30.70
2010,04,04,11,30,22.40
2010,04,04,11,31,14.10
2010,04,04,11,32,15.90
2010,04,04,11,33,22.20
2010,04,04,11,34,17.70
2010,04,04,11,35,18.80
2010,04,04,11,36,10.50
2010,04,04,11,37,13.40
2010,04,04,11,38,13.50
2010,04,04,11,39,24.10
2010,04,04,11,40,21.10
2010,04,04,11,41,18.50
2010,04,04,11,42,14.70
2010,04,04,11,43,22.50
2010,04,04,11,44,23.20
2010,04,04,11,45,21.30
2010,04,04,11,46,14.50
2010,04,04,11,47,9.40
2010,04,04,11,48,14.90
2010,04,04,11,49,24.20
2010,04,04,11,50,24.10
2010,04,04,11,51,24.40
2010,04,04,11,52,25.70
2010,04,04,11,53,22.90
2010,04,04,11,54,9.00
2010,04,04,11,55,13.90
2010,04,04,11,56,20.70
2010,04,04,11,57,23.90
2010,04,04,11,58,26.30
2010,04,04,11,59,27.10
2010,04,04,12,00,28.50
2010,04,04,12,01,26.50
2010,04,04,12,02,26.30
2010,04,04,12,03,21.90
2010,04,04,12,04,18.60
2010,04,04,12,05,22.40
2010,04,04,12,06,22.40
2010,04,04,12,07,17.00
2010,04,04,12,08,28.30
2010,04,04,12,09,23.20
2010,04,04,12,10,23.00
2010,04,04,12,11,27.80
2010,04,04,12,12,23.60
2010,04,04,12,13,27.10
2010,04,04,12,14,16.70
2010,04,04,12,15,22.30
2010,04,04,12,16,18.80
2010,04,04,12,17,21.70
2010,04,04,12,18,26.80
2010,04,04,12,19,21.20
2010,04,04,12,20,21.50
2010,04,04,12,21,10.90
2010,04,04,12,22,12.60
2010,04,04,12,23,29.90
2010,04,04,12,24,20.70
2010,04,04,12,25,21.90
2010,04,04,12,26,12.80
2010,04,04,12,27,17.20
2010,04,04,12,28,10.80
2010,04,04,12,29,33.50
2010,04,04,12,30,27.40
2010,04,04,12,31,23.70
2010,04,04,12,32,17.90
2010,04,04,12,33,27.70
2010,04,04,12,34,20.80
2010,04,04,12,35,19.00
2010,04,04,12,36,21.90
2010,04,04,12,37,25.10
2010,04,04,12,38,21.90
2010,04,04,12,39,17.40
2010,04,04,12,40,17.40
2010,04,04,12,41,10.80
2010,04,04,12,42,13.60
2010,04,04,12,43,21.00
2010,04,04,12,44,16.10
2010,04,04,12,45,21.60
2010,04,04,12,46,20.00
2010,04,04,12,47,14.60
2010,04,04,12,48,11.00
2010,04,04,12,49,17.30
2010,04,04,12,50,18.90
2010,04,04,12,51,24.00
2010,04,04,12,52,25.80
2010,04,04,12,53,20.80
2010,04,04,12,54,19.40
2010,04,04,12,55,14.70
2010,04,04,12,56,19.50
2010,04,04,12,57,20.30
2010,04,04,12,58,11.90
2010,04,04,12,59,12.70
2010,04,04,13,00,12.70
2010,04,04,13,01,4.90
2010,04,04,13,02,8.20
2010,04,04,13,03,23.70
2010,04,04,13,04,27.20
2010,04,04,13,05,32.40
2010,04,04,13,06,28.10
2010,04,04,13,07,23.20
2010,04,04,13,08,25.30
2010,04,04,13,09,15.10
2010,04,04,13,10,22.60
2010,04,04,13,11,25.80
2010,04,04,13,12,14.00
2010,04,04,13,13,17.10
2010,04,04,13,14,19.50
2010,04,04,13,15,24.90
2010,04,04,13,16,22.40
2010,04,04,13,17,28.20
2010,04,04,13,18,33.40
2010,04,04,13,19,23.20
2010,04,04,13,20,22.00
2010,04,04,13,21,26.50
2010,04,04,13,22,21.70
2010,04,04,13,23,25.20
2010,04,04,13,24,21.90
2010,04,04,13,25,25.50
2010,04,04,13,26,21.40
2010,04,04,13,27,15.90
2010,04,04,13,28,17.70
2010,04,04,13,29,23.10
2010,04,04,13,30,23.10
2010,04,04,13,31,26.30
2010,04,04,13,32,18.40
2010,04,04,13,33,18.60
2010,04,04,13,34,18.70
2010,04,04,13,35,25.80
2010,04,04,13,36,28.70
2010,04,04,13,37,18.20
2010,04,04,13,38,16.80
2010,04,04,13,39,21.80
2010,04,04,13,40,21.80
2010,04,04,13,41,25.90
2010,04,04,13,42,25.60
2010,04,04,13,43,20.10
2010,04,04,13,44,21.40
2010,04,04,13,45,24.30
2010,04,04,13,46,24.10
2010,04,04,13,47,25.00
2010,04,04,13,48,22.10
2010,04,04,13,49,7.60
2010,04,04,13,50,17.80
2010,04,04,13,51,20.20
2010,04,04,13,52,19.60
2010,04,04,13,53,22.40
2010,04,04,13,54,27.40
2010,04,04,13,55,18.50
2010,04,04,13,56,18.10
2010,04,04,13,57,16.20
2010,04,04,13,58,21.40
2010,04,04,13,59,25.80
2010,04,04,14,00,28.00
2010,04,04,14,01,22.80
2010,04,04,14,02,18.60
2010,04,04,14,03,22.30
2010,04,04,14,04,19.90
2010,04,04,14,05,23.30
2010,04,04,14,06,23.70
2010,04,04,14,07,26.60
2010,04,04,14,08,26.70
2010,04,04,14,09,22.20
2010,04,04,14,10,26.90
2010,04,04,14,11,25.20
2010,04,04,14,12,22.10
2010,04,04,14,13,18.20
2010,04,04,14,14,17.40
2010,04,04,14,15,25.30
2010,04,04,14,16,19.70
2010,04,04,14,17,16.70
2010,04,04,14,18,14.70
2010,04,04,14,19,29.60
2010,04,04,14,20,25.20
2010,04,04,14,21,16.80
2010,04,04,14,22,17.00
2010,04,04,14,23,16.60
2010,04,04,14,24,20.40
2010,04,04,14,25,23.10
2010,04,04,14,26,13.30
2010,04,04,14,27,12.70
2010,04,04,14,28,18.00
2010,04,04,14,29,23.40
2010,04,04,14,30,17.00
2010,04,04,14,31,20.80
2010,04,04,14,32,15.40
2010,04,04,14,33,20.90
2010,04,04,14,34,28.40
2010,04,04,14,35,28.30
2010,04,04,14,36,24.20
2010,04,04,14,37,30.20
2010,04,04,14,38,29.10
2010,04,04,14,39,31.30
2010,04,04,14,40,23.20
2010,04,04,14,41,21.60
2010,04,04,14,42,25.30
2010,04,04,14,43,24.60
2010,04,04,14,44,19.50
2010,04,04,14,45,21.70
2010,04,04,14,46,24.80
2010,04,04,14,47,17.90
2010,04,04,14,48,17.50
2010,04,04,14,49,25.20
2010,04,04,14,50,22.40
2010,04,04,14,51,22.60
2010,04,04,14,52,23.30
2010,04,04,14,53,22.30
2010,04,04,14,54,23.80
2010,04,04,14,55,16.20
2010,04,04,14,56,15.00
2010,04,04,14,57,24.10
2010,04,04,14,58,25.50
2010,04,04,14,59,21.50
2010,04,04,15,00,31.50
2010,04,04,15,01,20.10
2010,04,04,15,02,19.00
2010,04,04,15,03,20.90
2010,04,04,15,04,23.80
2010,04,04,15,05,29.50
2010,04,04,15,06,19.90
2010,04,04,15,07,14.80
2010,04,04,15,08,20.60
2010,04,04,15,09,20.40
2010,04,04,15,10,18.50
2010,04,04,15,11,26.90
2010,04,04,15,12,21.80
2010,04,04,15,13,20.40
2010,04,04,15,14,14.30
2010,04,04,15,15,16.60
2010,04,04,15,16,22.20
2010,04,04,15,17,24.10
2010,04,04,15,18,22.40
2010,04,04,15,19,16.90
2010,04,04,15,20,19.40
2010,04,04,15,21,12.20
2010,04,04,15,22,19.20
2010,04,04,15,23,18.30
2010,04,04,15,24,18.90
2010,04,04,15,25,20.60
2010,04,04,15,26,21.80
2010,04,04,15,27,12.00
2010,04,04,15,28,17.40
2010,04,04,15,29,20.60
2010,04,04,15,30,18.10
2010,04,04,15,31,15.80
2010,04,04,15,32,22.30
2010,04,04,15,33,20.20
2010,04,04,15,34,26.40
2010,04,04,15,35,15.80
2010,04,04,15,36,9.30
2010,04,04,15,37,20.50
2010,04,04,15,38,16.40
2010,04,04,15,39,27.20
2010,04,04,15,40,19.70
2010,04,04,15,41,18.30
2010,04,04,15,42,20.80
2010,04,04,15,43,19.30
2010,04,04,15,44,14.10
2010,04,04,15,45,23.90
2010,04,04,15,46,17.30
2010,04,04,15,47,12.20
2010,04,04,15,48,18.40
2010,04,04,15,49,12.60
2010,04,04,15,50,19.10
2010,04,04,15,51,17.20
2010,04,04,15,52,13.60
2010,04,04,15,53,12.60
2010,04,04,15,54,17.90
2010,04,04,15,55,18.50
2010,04,04,15,56,14.90
2010,04,04,15,57,15.00
2010,04,04,15,58,18.70
2010,04,04,15,59,12.10
2010,04,04,16,00,6.80
2010,04,04,16,01,11.40
2010,04,04,16,02,16.30
2010,04,04,16,03,20.30
2010,04,04,16,04,16.50
2010,04,04,16,05,17.60
2010,04,04,16,06,8.40
2010,04,04,16,07,12.80
2010,04,04,16,08,11.40
2010,04,04,16,09,10.50
2010,04,04,16,10,15.10
2010,04,04,16,11,17.70
2010,04,04,16,12,18.60
2010,04,04,16,13,17.60
2010,04,04,16,14,17.10
2010,04,04,16,15,15.30
2010,04,04,16,16,13.80
2010,04,04,16,17,19.90
2010,04,04,16,18,19.00
2010,04,04,16,19,9.60
2010,04,04,16,20,9.70
2010,04,04,16,21,17.90
2010,04,04,16,22,19.90
2010,04,04,16,23,23.00
2010,04,04,16,24,19.20
2010,04,04,16,25,23.10
2010,04,04,16,26,28.20
2010,04,04,16,27,23.40
2010,04,04,16,28,21.30
2010,04,04,16,29,13.80
2010,04,04,16,30,23.30
2010,04,04,16,31,21.20
2010,04,04,16,32,23.40
2010,04,04,16,33,24.90
2010,04,04,16,34,17.60
2010,04,04,16,35,17.20
2010,04,04,16,36,19.60
2010,04,04,16,37,18.60
2010,04,04,16,38,17.00
2010,04,04,16,39,16.70
2010,04,04,16,40,19.10
2010,04,04,16,41,14.20
2010,04,04,16,42,19.00
2010,04,04,16,43,19.70
2010,04,04,16,44,13.90
2010,04,04,16,45,20.80
2010,04,04,16,46,17.60
2010,04,04,16,47,18.20
2010,04,04,16,48,23.70
2010,04,04,16,49,12.40
2010,04,04,16,50,18.30
2010,04,04,16,51,15.90
2010,04,04,16,52,16.00
2010,04,04,16,53,17.90
2010,04,04,16,54,18.50
2010,04,04,16,55,23.60
2010,04,04,16,56,24.90
2010,04,04,16,57,19.10
2010,04,04,16,58,13.80
2010,04,04,16,59,12.70
2010,04,04,17,00,9.40
2010,04,04,17,01,16.30
2010,04,04,17,02,26.10
2010,04,04,17,03,21.10
2010,04,04,17,04,12.60
2010,04,04,17,05,20.10
2010,04,04,17,06,26.30
2010,04,04,17,07,16.50
2010,04,04,17,08,20.60
2010,04,04,17,09,25.70
2010,04,04,17,10,22.40
2010,04,04,17,11,16.50
2010,04,04,17,12,16.90
2010,04,04,17,13,15.30
2010,04,04,17,14,14.70
2010,04,04,17,15,11.50
2010,04,04,17,16,20.60
2010,04,04,17,17,24.50
2010,04,04,17,18,17.00
2010,04,04,17,19,19.30
2010,04,04,17,20,15.80
2010,04,04,17,21,13.60
2010,04,04,17,22,5.30
2010,04,04,17,23,14.00
2010,04,04,17,24,14.70
2010,04,04,17,25,13.80
2010,04,04,17,26,9.10
2010,04,04,17,27,8.60
2010,04,04,17,28,16.10
2010,04,04,17,29,5.80
2010,04,04,17,30,9.60
2010,04,04,17,31,10.50
2010,04,04,17,32,9.30
2010,04,04,17,33,13.80
2010,04,04,17,34,6.40
2010,04,04,17,35,9.40
2010,04,04,17,36,14.80